| time (UTC) | temp C | wind direction | speed KPH | gust KPH | rain 1hr cm | rain 24hr cm | rain mn cm | humidity % | barometer mb |
| 20260507030327 | 5 | 5 | 0.0 | 3.2 | 0.00 | 0.00 | 0.00 | 79 | 1018.2 |
| 20260507025823 | 5 | 29 | 0.0 | 3.2 | 0.00 | 0.00 | 0.00 | 79 | 1018.1 |
| 20260507025321 | 5 | 353 | 0.0 | 1.6 | 0.00 | 0.00 | 0.00 | 78 | 1018.1 |
| 20260507024818 | 5 | 18 | 0.0 | 3.2 | 0.00 | 0.00 | 0.00 | 77 | 1018.0 |
| 20260507024315 | 5 | 29 | 3.2 | 3.2 | 0.00 | 0.00 | 0.00 | 74 | 1018.0 |
| 20260507023811 | 6 | 18 | 3.2 | 3.2 | 0.00 | 0.00 | 0.00 | 72 | 1018.1 |
| 20260507023308 | 6 | 33 | 1.6 | 3.2 | 0.00 | 0.00 | 0.00 | 72 | 1018.0 |
| 20260507022805 | 6 | 21 | 1.6 | 3.2 | 0.00 | 0.00 | 0.00 | 72 | 1018.0 |
| 20260507022301 | 6 | 6 | 0.0 | 3.2 | 0.00 | 0.00 | 0.00 | 67 | 1018.0 |
| 20260507021757 | 7 | 22 | 1.6 | 3.2 | 0.00 | 0.00 | 0.00 | 65 | 1018.0 |
| 20260507021253 | 7 | 5 | 1.6 | 3.2 | 0.00 | 0.00 | 0.00 | 61 | 1017.8 |
| 20260507020752 | 8 | 353 | 1.6 | 3.2 | 0.00 | 0.00 | 0.00 | 58 | 1017.5 |
| 20260507020248 | 8 | 23 | 0.0 | 1.6 | 0.00 | 0.00 | 0.00 | 59 | 1017.6 |
| 20260507015745 | 8 | 10 | 0.0 | 3.2 | 0.00 | 0.00 | 0.00 | 55 | 1017.6 |
| 20260507015243 | 8 | 354 | 0.0 | 4.8 | 0.00 | 0.00 | 0.00 | 54 | 1017.5 |
| 20260507014739 | 8 | 17 | 1.6 | 3.2 | 0.00 | 0.00 | 0.00 | 57 | 1017.4 |
| 20260507014236 | 8 | 328 | 4.8 | 6.4 | 0.00 | 0.00 | 0.00 | 56 | 1017.3 |
| 20260507013732 | 8 | 38 | 1.6 | 3.2 | 0.00 | 0.00 | 0.00 | 56 | 1017.3 |
| 20260507013230 | 8 | 29 | 0.0 | 3.2 | 0.00 | 0.00 | 0.00 | 61 | 1017.3 |
| 20260507012727 | 8 | 324 | 0.0 | 4.8 | 0.00 | 0.00 | 0.00 | 60 | 1017.1 |
| 20260507012222 | 8 | 339 | 0.0 | 1.6 | 0.00 | 0.00 | 0.00 | 57 | 1017.0 |
| 20260507011720 | 8 | 8 | 3.2 | 3.2 | 0.00 | 0.00 | 0.00 | 60 | 1016.9 |
| 20260507011217 | 9 | 186 | 0.0 | 1.6 | 0.00 | 0.00 | 0.00 | 58 | 1017.0 |
| 20260507010711 | 9 | 91 | 0.0 | 3.2 | 0.00 | 0.00 | 0.00 | 58 | 1017.0 |
| 20260507010207 | 10 | 348 | 0.0 | 3.2 | 0.00 | 0.00 | 0.00 | 57 | 1016.9 |
| 20260507005705 | 10 | 5 | 0.0 | 3.2 | 0.00 | 0.00 | 0.00 | 54 | 1016.9 |
| 20260507005201 | 10 | 250 | 0.0 | 6.4 | 0.00 | 0.00 | 0.00 | 53 | 1017.0 |
| 20260507004658 | 10 | 358 | 1.6 | 8.0 | 0.00 | 0.00 | 0.00 | 53 | 1016.8 |
| 20260507004155 | 11 | 245 | 3.2 | 8.0 | 0.00 | 0.00 | 0.00 | 49 | 1016.9 |
| 20260507003652 | 11 | 43 | 1.6 | 4.8 | 0.00 | 0.00 | 0.00 | 51 | 1016.9 |
| 20260507003152 | 11 | 212 | 0.0 | 3.2 | 0.00 | 0.00 | 0.00 | 52 | 1016.7 |
| 20260507002648 | 11 | 233 | 3.2 | 6.4 | 0.00 | 0.00 | 0.00 | 48 | 1016.9 |
| 20260507002144 | 11 | 225 | 3.2 | 4.8 | 0.00 | 0.00 | 0.00 | 48 | 1016.9 |
| 20260507001641 | 11 | 226 | 3.2 | 6.4 | 0.00 | 0.00 | 0.00 | 47 | 1016.8 |
| 20260507001139 | 11 | 235 | 4.8 | 6.4 | 0.00 | 0.00 | 0.00 | 48 | 1016.8 |
| 20260507000635 | 12 | 231 | 8.0 | 12.9 | 0.00 | 0.00 | 0.00 | 46 | 1016.8 |
| 20260507000130 | 11 | 277 | 1.6 | 8.0 | 0.00 | 0.00 | 0.00 | 47 | 1016.7 |
| 20260506235628 | 11 | 246 | 6.4 | 9.7 | 0.00 | 0.00 | 0.00 | 45 | 1016.9 |
| 20260506235127 | 12 | 243 | 3.2 | 9.7 | 0.00 | 0.00 | 0.00 | 47 | 1016.9 |
| 20260506234625 | 12 | 230 | 4.8 | 9.7 | 0.00 | 0.00 | 0.00 | 45 | 1017.0 |
| 20260506234122 | 12 | 274 | 1.6 | 8.0 | 0.00 | 0.00 | 0.00 | 45 | 1017.0 |
| 20260506233619 | 12 | 233 | 3.2 | 9.7 | 0.00 | 0.00 | 0.00 | 44 | 1016.9 |
| 20260506233116 | 12 | 239 | 3.2 | 8.0 | 0.00 | 0.00 | 0.00 | 48 | 1016.9 |
| 20260506232612 | 12 | 238 | 9.7 | 9.7 | 0.00 | 0.00 | 0.00 | 44 | 1016.8 |
| 20260506232107 | 12 | 235 | 4.8 | 12.9 | 0.00 | 0.00 | 0.00 | 43 | 1016.8 |
| 20260506231605 | 12 | 235 | 9.7 | 9.7 | 0.00 | 0.00 | 0.00 | 43 | 1016.9 |
| 20260506231103 | 13 | 225 | 16.1 | 22.5 | 0.00 | 0.00 | 0.00 | 42 | 1017.1 |
| 20260506230559 | 13 | 240 | 1.6 | 12.9 | 0.00 | 0.00 | 0.00 | 44 | 1016.7 |
| 20260506230056 | 13 | 237 | 4.8 | 14.5 | 0.00 | 0.00 | 0.00 | 44 | 1016.9 |
| 20260506225553 | 13 | 234 | 8.0 | 14.5 | 0.00 | 0.00 | 0.00 | 44 | 1016.8 |
| 20260506225049 | 13 | 224 | 11.3 | 17.7 | 0.00 | 0.00 | 0.00 | 41 | 1016.7 |
| 20260506224546 | 13 | 226 | 9.7 | 9.7 | 0.00 | 0.00 | 0.00 | 44 | 1016.6 |
| 20260506224043 | 13 | 255 | 11.3 | 14.5 | 0.00 | 0.00 | 0.00 | 42 | 1016.5 |
| 20260506223539 | 13 | 282 | 3.2 | 16.1 | 0.00 | 0.00 | 0.00 | 47 | 1016.6 |
| 20260506223036 | 13 | 227 | 8.0 | 11.3 | 0.00 | 0.00 | 0.00 | 42 | 1016.5 |
| 20260506222533 | 13 | 244 | 8.0 | 12.9 | 0.00 | 0.00 | 0.00 | 42 | 1016.5 |
| 20260506222029 | 14 | 222 | 9.7 | 16.1 | 0.00 | 0.00 | 0.00 | 42 | 1016.6 |
| 20260506221526 | 13 | 345 | 3.2 | 3.2 | 0.00 | 0.00 | 0.00 | 48 | 1016.2 |
| 20260506221024 | 13 | 228 | 3.2 | 6.4 | 0.00 | 0.00 | 0.00 | 47 | 1016.5 |
| 20260506220520 | 13 | 232 | 4.8 | 11.3 | 0.00 | 0.00 | 0.00 | 45 | 1016.5 |
| 20260506220016 | 13 | 222 | 4.8 | 12.9 | 0.00 | 0.00 | 0.00 | 45 | 1016.3 |
| 20260506215513 | 13 | 226 | 6.4 | 19.3 | 0.00 | 0.00 | 0.00 | 42 | 1016.3 |
| 20260506215008 | 13 | 232 | 9.7 | 16.1 | 0.00 | 0.00 | 0.00 | 43 | 1016.6 |
| 20260506214506 | 13 | 329 | 1.6 | 9.7 | 0.00 | 0.00 | 0.00 | 48 | 1016.5 |
| 20260506214003 | 13 | 246 | 1.6 | 11.3 | 0.00 | 0.00 | 0.00 | 47 | 1016.5 |
| 20260506213501 | 13 | 328 | 4.8 | 9.7 | 0.00 | 0.00 | 0.00 | 46 | 1016.5 |
| 20260506212957 | 13 | 261 | 6.4 | 17.7 | 0.00 | 0.00 | 0.00 | 44 | 1016.6 |
| 20260506212454 | 13 | 237 | 9.7 | 11.3 | 0.00 | 0.00 | 0.00 | 44 | 1016.6 |
| 20260506211948 | 13 | 242 | 6.4 | 9.7 | 0.00 | 0.00 | 0.00 | 44 | 1016.7 |
| 20260506211445 | 13 | 231 | 3.2 | 11.3 | 0.00 | 0.00 | 0.00 | 49 | 1016.6 |
| 20260506210942 | 13 | 232 | 4.8 | 12.9 | 0.00 | 0.00 | 0.00 | 46 | 1016.6 |
| 20260506210438 | 13 | 242 | 8.0 | 9.7 | 0.00 | 0.00 | 0.00 | 44 | 1016.6 |
| 20260506205936 | 13 | 274 | 3.2 | 8.0 | 0.00 | 0.00 | 0.00 | 45 | 1016.6 |
| 20260506205432 | 13 | 225 | 3.2 | 11.3 | 0.00 | 0.00 | 0.00 | 47 | 1016.6 |
| 20260506204928 | 13 | 160 | 1.6 | 14.5 | 0.00 | 0.00 | 0.00 | 45 | 1016.6 |
| 20260506204426 | 13 | 227 | 8.0 | 8.0 | 0.00 | 0.00 | 0.00 | 46 | 1016.5 |
| 20260506203923 | 13 | 231 | 11.3 | 17.7 | 0.00 | 0.00 | 0.00 | 45 | 1016.8 |
| 20260506203420 | 13 | 265 | 8.0 | 14.5 | 0.00 | 0.00 | 0.00 | 45 | 1016.6 |
| 20260506202917 | 13 | 229 | 4.8 | 12.9 | 0.00 | 0.00 | 0.00 | 46 | 1016.8 |
| 20260506202414 | 13 | 234 | 4.8 | 14.5 | 0.00 | 0.00 | 0.00 | 47 | 1017.0 |
| 20260506201911 | 14 | 223 | 11.3 | 16.1 | 0.00 | 0.00 | 0.00 | 42 | 1017.0 |
| 20260506201409 | 14 | 311 | 1.6 | 20.9 | 0.00 | 0.00 | 0.00 | 44 | 1016.9 |
| 20260506200905 | 15 | 235 | 3.2 | 9.7 | 0.00 | 0.00 | 0.00 | 41 | 1016.7 |
| 20260506200401 | 14 | 252 | 3.2 | 6.4 | 0.00 | 0.00 | 0.00 | 46 | 1016.8 |
| 20260506195857 | 15 | 227 | 9.7 | 17.7 | 0.00 | 0.00 | 0.00 | 44 | 1017.0 |
| 20260506195355 | 15 | 293 | 3.2 | 6.4 | 0.00 | 0.00 | 0.00 | 49 | 1016.8 |
| 20260506194851 | 14 | 229 | 6.4 | 8.0 | 0.00 | 0.00 | 0.00 | 45 | 1016.8 |
| 20260506194348 | 14 | 156 | 3.2 | 16.1 | 0.00 | 0.00 | 0.00 | 52 | 1016.9 |
| 20260506193846 | 15 | 256 | 9.7 | 19.3 | 0.00 | 0.00 | 0.00 | 48 | 1016.9 |
| 20260506193342 | 14 | 21 | 11.3 | 11.3 | 0.00 | 0.00 | 0.00 | 47 | 1016.9 |
| 20260506192839 | 14 | 273 | 0.0 | 8.0 | 0.00 | 0.00 | 0.00 | 48 | 1016.9 |
| 20260506192335 | 14 | 262 | 1.6 | 9.7 | 0.00 | 0.00 | 0.00 | 48 | 1017.0 |
| 20260506191833 | 13 | 252 | 4.8 | 17.7 | 0.00 | 0.00 | 0.00 | 47 | 1017.0 |
| 20260506191329 | 14 | 350 | 6.4 | 12.9 | 0.00 | 0.00 | 0.00 | 48 | 1017.0 |
| 20260506190826 | 14 | 224 | 12.9 | 14.5 | 0.00 | 0.00 | 0.00 | 47 | 1017.1 |
| 20260506190322 | 14 | 267 | 3.2 | 20.9 | 0.00 | 0.00 | 0.00 | 48 | 1017.1 |
| 20260506185819 | 15 | 345 | 6.4 | 11.3 | 0.00 | 0.00 | 0.00 | 48 | 1017.1 |
| 20260506185316 | 13 | 227 | 11.3 | 17.7 | 0.00 | 0.00 | 0.00 | 45 | 1016.9 |
| 20260506184813 | 13 | 228 | 6.4 | 9.7 | 0.00 | 0.00 | 0.00 | 48 | 1017.0 |
| 20260506184311 | 13 | 229 | 9.7 | 9.7 | 0.00 | 0.00 | 0.00 | 46 | 1016.9 |
| 20260506183807 | 13 | 232 | 6.4 | 9.7 | 0.00 | 0.00 | 0.00 | 50 | 1017.0 |
| 20260506183303 | 13 | 227 | 8.0 | 9.7 | 0.00 | 0.00 | 0.00 | 47 | 1017.0 |
| 20260506182800 | 12 | 236 | 9.7 | 9.7 | 0.00 | 0.00 | 0.00 | 49 | 1016.9 |
| 20260506182257 | 13 | 257 | 6.4 | 16.1 | 0.00 | 0.00 | 0.00 | 49 | 1017.0 |
| 20260506181755 | 15 | 231 | 12.9 | 17.7 | 0.00 | 0.00 | 0.00 | 45 | 1016.9 |
| 20260506181252 | 15 | 216 | 9.7 | 14.5 | 0.00 | 0.00 | 0.00 | 41 | 1017.0 |
| 20260506180749 | 13 | 280 | 3.2 | 8.0 | 0.00 | 0.00 | 0.00 | 51 | 1017.0 |
| 20260506180245 | 13 | 241 | 9.7 | 11.3 | 0.00 | 0.00 | 0.00 | 50 | 1016.9 |
| 20260506175742 | 13 | 233 | 4.8 | 12.9 | 0.00 | 0.00 | 0.00 | 50 | 1017.3 |
| 20260506175239 | 14 | 232 | 9.7 | 16.1 | 0.00 | 0.00 | 0.00 | 47 | 1017.2 |
| 20260506174736 | 15 | 253 | 4.8 | 9.7 | 0.00 | 0.00 | 0.00 | 54 | 1017.2 |
| 20260506174233 | 15 | 238 | 3.2 | 6.4 | 0.00 | 0.00 | 0.00 | 52 | 1017.2 |
| 20260506173731 | 15 | 253 | 3.2 | 8.0 | 0.00 | 0.00 | 0.00 | 46 | 1017.1 |
| 20260506173222 | 15 | 332 | 6.4 | 6.4 | 0.00 | 0.00 | 0.00 | 52 | 1017.3 |
| 20260506172719 | 14 | 60 | 1.6 | 14.5 | 0.00 | 0.00 | 0.00 | 49 | 1017.1 |
| 20260506172215 | 14 | 283 | 3.2 | 11.3 | 0.00 | 0.00 | 0.00 | 44 | 1017.3 |
| 20260506171713 | 15 | 328 | 4.8 | 6.4 | 0.00 | 0.00 | 0.00 | 49 | 1017.4 |
| 20260506171211 | 13 | 278 | 3.2 | 6.4 | 0.00 | 0.00 | 0.00 | 49 | 1017.3 |
| 20260506170708 | 13 | 336 | 3.2 | 8.0 | 0.00 | 0.00 | 0.00 | 49 | 1017.4 |
| 20260506170205 | 14 | 319 | 3.2 | 8.0 | 0.00 | 0.00 | 0.00 | 52 | 1017.5 |
| 20260506165703 | 13 | 67 | 3.2 | 9.7 | 0.00 | 0.00 | 0.00 | 52 | 1017.4 |
| 20260506165159 | 12 | 225 | 12.9 | 17.7 | 0.00 | 0.00 | 0.00 | 48 | 1017.4 |
| 20260506164656 | 14 | 228 | 6.4 | 11.3 | 0.00 | 0.00 | 0.00 | 46 | 1017.3 |
| 20260506164154 | 14 | 235 | 4.8 | 9.7 | 0.00 | 0.00 | 0.00 | 51 | 1017.3 |
| 20260506163650 | 14 | 263 | 3.2 | 4.8 | 0.00 | 0.00 | 0.00 | 53 | 1017.3 |
| 20260506163145 | 13 | 216 | 6.4 | 12.9 | 0.00 | 0.00 | 0.00 | 47 | 1017.1 |
| 20260506162641 | 12 | 340 | 0.0 | 14.5 | 0.00 | 0.00 | 0.00 | 57 | 1017.0 |
| 20260506162139 | 13 | 321 | 4.8 | 8.0 | 0.00 | 0.00 | 0.00 | 59 | 1017.0 |
| 20260506161636 | 13 | 26 | 1.6 | 9.7 | 0.00 | 0.00 | 0.00 | 57 | 1017.1 |
| 20260506161133 | 12 | 221 | 4.8 | 6.4 | 0.00 | 0.00 | 0.00 | 55 | 1016.8 |
| 20260506160630 | 13 | 230 | 3.2 | 3.2 | 0.00 | 0.00 | 0.00 | 62 | 1016.9 |
| 20260506160127 | 12 | 45 | 4.8 | 6.4 | 0.00 | 0.00 | 0.00 | 63 | 1016.7 |
| 20260506155626 | 12 | 269 | 3.2 | 6.4 | 0.00 | 0.00 | 0.00 | 62 | 1016.8 |
| 20260506155122 | 11 | 346 | 4.8 | 6.4 | 0.00 | 0.00 | 0.00 | 65 | 1016.6 |
| 20260506153219 | 11 | 349 | 4.8 | 6.4 | 0.00 | 0.00 | 0.00 | 65 | 1016.5 |
| 20260506152716 | 11 | 342 | 3.2 | 6.4 | 0.00 | 0.00 | 0.00 | 65 | 1016.4 |
| 20260506152213 | 11 | 357 | 4.8 | 4.8 | 0.00 | 0.00 | 0.00 | 67 | 1016.2 |
| 20260506151712 | 11 | 4 | 3.2 | 3.2 | 0.00 | 0.00 | 0.00 | 65 | 1016.1 |
| 20260506151209 | 10 | 337 | 0.0 | 8.0 | 0.00 | 0.00 | 0.00 | 68 | 1016.1 |
| 20260506150705 | 11 | 325 | 6.4 | 9.7 | 0.00 | 0.00 | 0.00 | 62 | 1016.3 |
| 20260506150202 | 11 | 83 | 1.6 | 6.4 | 0.00 | 0.00 | 0.00 | 65 | 1016.2 |
| 20260506145659 | 10 | 10 | 1.6 | 9.7 | 0.00 | 0.00 | 0.00 | 65 | 1016.1 |
| 20260506145155 | 10 | 358 | 4.8 | 8.0 | 0.00 | 0.00 | 0.00 | 67 | 1016.0 |
| 20260506144653 | 10 | 323 | 6.4 | 8.0 | 0.00 | 0.00 | 0.00 | 68 | 1016.0 |
| 20260506144150 | 10 | 309 | 0.0 | 4.8 | 0.00 | 0.00 | 0.00 | 69 | 1015.9 |
| 20260506143648 | 10 | 312 | 9.7 | 9.7 | 0.00 | 0.00 | 0.00 | 68 | 1015.9 |
| 20260506143145 | 10 | 328 | 4.8 | 9.7 | 0.00 | 0.00 | 0.00 | 66 | 1015.8 |
| 20260506142643 | 10 | 21 | 1.6 | 6.4 | 0.00 | 0.00 | 0.00 | 68 | 1016.0 |
| 20260506142141 | 10 | 30 | 1.6 | 6.4 | 0.00 | 0.00 | 0.00 | 69 | 1015.9 |
| 20260506141638 | 10 | 354 | 3.2 | 6.4 | 0.00 | 0.00 | 0.00 | 71 | 1016.1 |
| 20260506141137 | 10 | 314 | 6.4 | 6.4 | 0.00 | 0.00 | 0.00 | 68 | 1016.0 |
| 20260506140634 | 9 | 295 | 6.4 | 9.7 | 0.00 | 0.00 | 0.00 | 70 | 1016.1 |
| 20260506140131 | 9 | 348 | 3.2 | 6.4 | 0.00 | 0.00 | 0.00 | 71 | 1016.2 |
| 20260506135628 | 8 | 341 | 0.0 | 6.4 | 0.00 | 0.00 | 0.00 | 70 | 1016.1 |
| 20260506135124 | 8 | 331 | 3.2 | 4.8 | 0.00 | 0.00 | 0.00 | 74 | 1015.9 |
| 20260506134621 | 8 | 7 | 1.6 | 4.8 | 0.00 | 0.00 | 0.00 | 77 | 1016.0 |
| 20260506134116 | 8 | 32 | 1.6 | 3.2 | 0.00 | 0.00 | 0.00 | 80 | 1015.9 |
| 20260506133614 | 7 | 21 | 1.6 | 4.8 | 0.00 | 0.00 | 0.00 | 75 | 1015.9 |
| 20260506133111 | 8 | 49 | 0.0 | 3.2 | 0.00 | 0.00 | 0.00 | 74 | 1015.9 |
| 20260506132608 | 8 | 7 | 1.6 | 3.2 | 0.00 | 0.00 | 0.00 | 75 | 1016.2 |
| 20260506132105 | 7 | 162 | 0.0 | 3.2 | 0.00 | 0.00 | 0.00 | 75 | 1016.3 |
| 20260506131602 | 7 | 328 | 0.0 | 3.2 | 0.00 | 0.00 | 0.00 | 75 | 1016.2 |
| 20260506131059 | 7 | 37 | 4.8 | 6.4 | 0.00 | 0.00 | 0.00 | 75 | 1016.1 |
| 20260506130555 | 7 | 359 | 4.8 | 8.0 | 0.00 | 0.00 | 0.00 | 74 | 1016.0 |
| 20260506130053 | 7 | 353 | 4.8 | 6.4 | 0.00 | 0.00 | 0.00 | 75 | 1015.9 |
| 20260506125551 | 7 | 2 | 3.2 | 6.4 | 0.00 | 0.00 | 0.00 | 77 | 1015.9 |
| 20260506125049 | 7 | 354 | 6.4 | 9.7 | 0.00 | 0.00 | 0.00 | 75 | 1015.7 |
| 20260506124546 | 7 | 348 | 3.2 | 4.8 | 0.00 | 0.00 | 0.00 | 77 | 1015.5 |
| 20260506124044 | 7 | 340 | 1.6 | 8.0 | 0.00 | 0.00 | 0.00 | 76 | 1015.4 |
| 20260506123541 | 7 | 30 | 3.2 | 3.2 | 0.00 | 0.00 | 0.00 | 76 | 1015.1 |
| 20260506123040 | 7 | 5 | 4.8 | 6.4 | 0.00 | 0.00 | 0.00 | 77 | 1015.2 |
| 20260506122536 | 7 | 24 | 4.8 | 6.4 | 0.00 | 0.00 | 0.00 | 74 | 1015.0 |
| 20260506122034 | 7 | 335 | 3.2 | 6.4 | 0.00 | 0.00 | 0.00 | 74 | 1015.0 |
| 20260506121531 | 7 | 356 | 4.8 | 9.7 | 0.00 | 0.00 | 0.00 | 75 | 1014.8 |
| 20260506121027 | 7 | 30 | 0.0 | 6.4 | 0.00 | 0.00 | 0.00 | 77 | 1014.6 |
| 20260506120526 | 6 | 19 | 3.2 | 4.8 | 0.00 | 0.00 | 0.00 | 81 | 1014.7 |
| 20260506120023 | 6 | 310 | 3.2 | 3.2 | 0.00 | 0.00 | 0.00 | 81 | 1014.4 |
| 20260506115520 | 6 | 28 | 4.8 | 4.8 | 0.00 | 0.00 | 0.00 | 83 | 1014.7 |
| 20260506115019 | 6 | 335 | 1.6 | 3.2 | 0.00 | 0.00 | 0.00 | 81 | 1014.4 |
| 20260506114516 | 6 | 331 | 3.2 | 6.4 | 0.00 | 0.00 | 0.00 | 80 | 1014.3 |
| 20260506114014 | 6 | 75 | 1.6 | 3.2 | 0.00 | 0.00 | 0.00 | 81 | 1014.1 |
| 20260506113512 | 6 | 356 | 3.2 | 6.4 | 0.00 | 0.00 | 0.00 | 80 | 1013.8 |
| 20260506113009 | 6 | 17 | 3.2 | 3.2 | 0.00 | 0.00 | 0.00 | 80 | 1013.7 |
| 20260506112505 | 6 | 8 | 3.2 | 4.8 | 0.00 | 0.00 | 0.00 | 82 | 1013.7 |
| 20260506112003 | 5 | 4 | 4.8 | 6.4 | 0.00 | 0.00 | 0.00 | 81 | 1013.4 |
| 20260506111501 | 5 | 349 | 1.6 | 3.2 | 0.00 | 0.00 | 0.00 | 84 | 1013.5 |
| 20260506110957 | 5 | 346 | 3.2 | 6.4 | 0.00 | 0.00 | 0.00 | 85 | 1013.3 |
| 20260506110455 | 4 | 24 | 3.2 | 3.2 | 0.00 | 0.00 | 0.00 | 88 | 1013.5 |
| 20260506105951 | 4 | 358 | 1.6 | 4.8 | 0.00 | 0.00 | 0.00 | 90 | 1013.4 |
| 20260506105448 | 3 | 359 | 0.0 | 3.2 | 0.00 | 0.00 | 0.00 | 94 | 1013.4 |
| 20260506104945 | 3 | 17 | 0.0 | 3.2 | 0.00 | 0.00 | 0.00 | 97 | 1013.5 |
| 20260506104443 | 3 | 332 | 3.2 | 3.2 | 0.00 | 0.00 | 0.00 | 99 | 1013.0 |
| 20260506103942 | 3 | 10 | 3.2 | 6.4 | 0.00 | 0.00 | 0.00 | 99 | 1012.9 |
| 20260506103438 | 3 | 32 | 3.2 | 3.2 | 0.00 | 0.00 | 0.00 | 99 | 1013.1 |
| 20260506102935 | 3 | 19 | 3.2 | 4.8 | 0.00 | 0.00 | 0.00 | 99 | 1012.9 |
| 20260506102433 | 3 | 23 | 3.2 | 3.2 | 0.00 | 0.00 | 0.00 | 99 | 1013.1 |
| 20260506101930 | 3 | 30 | 0.0 | 3.2 | 0.00 | 0.00 | 0.00 | 99 | 1013.2 |
| 20260506101426 | 3 | 25 | 0.0 | 1.6 | 0.00 | 0.00 | 0.00 | 99 | 1013.4 |
| 20260506100924 | 3 | 338 | 0.0 | 3.2 | 0.00 | 0.00 | 0.00 | 99 | 1013.2 |
| 20260506100422 | 3 | 130 | 0.0 | 1.6 | 0.00 | 0.00 | 0.00 | 99 | 1013.3 |
| 20260506095920 | 3 | 119 | 0.0 | 1.6 | 0.00 | 0.00 | 0.00 | 99 | 1013.3 |
| 20260506095418 | 3 | 16 | 3.2 | 3.2 | 0.00 | 0.00 | 0.00 | 99 | 1013.0 |
| 20260506094914 | 3 | 10 | 0.0 | 3.2 | 0.00 | 0.00 | 0.00 | 98 | 1013.0 |
| 20260506094413 | 3 | 65 | 0.0 | 3.2 | 0.00 | 0.00 | 0.00 | 98 | 1012.8 |
| 20260506093910 | 3 | 27 | 3.2 | 3.2 | 0.00 | 0.00 | 0.00 | 98 | 1012.6 |
| 20260506093408 | 3 | 60 | 0.0 | 1.6 | 0.00 | 0.00 | 0.00 | 98 | 1012.6 |
| 20260506092905 | 3 | 44 | 0.0 | 1.6 | 0.00 | 0.00 | 0.00 | 98 | 1012.5 |
| 20260506092403 | 3 | 82 | 0.0 | 1.6 | 0.00 | 0.00 | 0.00 | 98 | 1012.1 |
| 20260506091859 | 3 | 135 | 0.0 | 3.2 | 0.00 | 0.00 | 0.00 | 98 | 1012.3 |
| 20260506091358 | 3 | 70 | 0.0 | 3.2 | 0.00 | 0.00 | 0.00 | 98 | 1012.4 |
| 20260506090854 | 3 | 359 | 1.6 | 3.2 | 0.00 | 0.00 | 0.00 | 98 | 1012.5 |
| 20260506090352 | 4 | 25 | 1.6 | 3.2 | 0.00 | 0.00 | 0.00 | 98 | 1012.6 |
| 20260506085849 | 4 | 19 | 3.2 | 3.2 | 0.00 | 0.00 | 0.00 | 98 | 1012.9 |
| 20260506085345 | 4 | 29 | 0.0 | 3.2 | 0.00 | 0.00 | 0.00 | 98 | 1013.0 |
| 20260506084842 | 4 | 44 | 0.0 | 3.2 | 0.00 | 0.00 | 0.00 | 98 | 1012.8 |
| 20260506084338 | 4 | 44 | 0.0 | 3.2 | 0.00 | 0.00 | 0.00 | 98 | 1013.1 |
| 20260506083835 | 4 | 53 | 0.0 | 3.2 | 0.00 | 0.00 | 0.00 | 98 | 1013.0 |
| 20260506083332 | 4 | 26 | 0.0 | 3.2 | 0.00 | 0.00 | 0.00 | 97 | 1012.9 |
| 20260506082829 | 4 | 29 | 0.0 | 0.0 | 0.00 | 0.00 | 0.00 | 97 | 1012.7 |
| 20260506082326 | 4 | 22 | 0.0 | 1.6 | 0.00 | 0.00 | 0.00 | 97 | 1012.6 |
| 20260506081822 | 4 | 16 | 1.6 | 1.6 | 0.00 | 0.00 | 0.00 | 97 | 1012.8 |
| 20260506081321 | 5 | 341 | 0.0 | 0.0 | 0.00 | 0.00 | 0.00 | 97 | 1012.7 |
| 20260506080818 | 5 | 32 | 0.0 | 1.6 | 0.00 | 0.00 | 0.00 | 97 | 1012.5 |
| 20260506080314 | 5 | 0 | 0.0 | 1.6 | 0.00 | 0.00 | 0.00 | 97 | 1012.6 |
| 20260506073258 | 5 | 27 | 0.0 | 1.6 | 0.00 | 0.00 | 0.00 | 96 | 1012.3 |
| 20260506072755 | 5 | 38 | 1.6 | 3.2 | 0.00 | 0.00 | 0.00 | 96 | 1012.1 |
| 20260506072253 | 5 | 76 | 0.0 | 3.2 | 0.00 | 0.00 | 0.00 | 96 | 1012.4 |
| 20260506071750 | 6 | 24 | 1.6 | 3.2 | 0.00 | 0.00 | 0.00 | 96 | 1012.2 |
| 20260506071248 | 6 | 37 | 0.0 | 3.2 | 0.00 | 0.00 | 0.00 | 96 | 1012.3 |
| 20260506070744 | 6 | 11 | 0.0 | 1.6 | 0.00 | 0.00 | 0.00 | 96 | 1012.4 |
| 20260506070241 | 6 | 14 | 1.6 | 3.2 | 0.00 | 0.00 | 0.00 | 96 | 1012.5 |
| 20260506062218 | 5 | 3 | 1.6 | 1.6 | 0.00 | 0.00 | 0.00 | 94 | 1012.5 |
| 20260506061714 | 6 | 66 | 0.0 | 3.2 | 0.00 | 0.00 | 0.00 | 94 | 1012.0 |
| 20260506061211 | 6 | 26 | 1.6 | 3.2 | 0.00 | 0.00 | 0.00 | 94 | 1012.1 |
| 20260506060710 | 6 | 34 | 0.0 | 1.6 | 0.00 | 0.00 | 0.00 | 93 | 1012.1 |
| 20260506060206 | 6 | 32 | 0.0 | 1.6 | 0.00 | 0.00 | 0.00 | 93 | 1012.2 |
| 20260506051139 | 7 | 21 | 0.0 | 1.6 | 0.00 | 0.00 | 0.00 | 89 | 1012.6 |
| 20260506050637 | 7 | 308 | 0.0 | 0.0 | 0.00 | 0.00 | 0.00 | 89 | 1012.4 |
| 20260506050134 | 8 | 69 | 0.0 | 3.2 | 0.00 | 0.00 | 0.00 | 89 | 1012.1 |
| 20260506045127 | 7 | 227 | 0.0 | 1.6 | 0.00 | 0.15 | 0.15 | 87 | 1012.3 |
| 20260506044625 | 8 | 48 | 1.6 | 1.6 | 0.00 | 0.15 | 0.15 | 89 | 1012.3 |
| 20260506044121 | 8 | 7 | 0.0 | 3.2 | 0.00 | 0.15 | 0.15 | 88 | 1011.9 |
| 20260506043619 | 8 | 333 | 1.6 | 1.6 | 0.00 | 0.15 | 0.15 | 85 | 1012.1 |
| 20260506043117 | 8 | 269 | 0.0 | 3.2 | 0.00 | 0.15 | 0.15 | 84 | 1012.2 |
| 20260506042615 | 8 | 69 | 1.6 | 1.6 | 0.00 | 0.15 | 0.15 | 85 | 1012.0 |
| 20260506042113 | 8 | 354 | 0.0 | 3.2 | 0.00 | 0.15 | 0.15 | 84 | 1012.2 |
| 20260506041612 | 9 | 56 | 1.6 | 3.2 | 0.00 | 0.15 | 0.15 | 81 | 1012.0 |
| 20260506041108 | 9 | 233 | 0.0 | 1.6 | 0.00 | 0.15 | 0.15 | 73 | 1011.9 |
| 20260506040606 | 9 | 0 | 0.0 | 4.8 | 0.00 | 0.15 | 0.15 | 72 | 1012.2 |
| 20260506035559 | 9 | 110 | 3.2 | 3.2 | 0.00 | 0.15 | 0.15 | 77 | 1012.5 |
| 20260506035055 | 8 | 13 | 3.2 | 8.0 | 0.00 | 0.15 | 0.15 | 79 | 1012.5 |
| 20260506034553 | 8 | 72 | 1.6 | 4.8 | 0.00 | 0.15 | 0.15 | 91 | 1012.7 |
| 20260506034050 | 8 | 59 | 1.6 | 3.2 | 0.00 | 0.15 | 0.15 | 91 | 1012.5 |
| 20260506033547 | 8 | 343 | 0.0 | 3.2 | 0.00 | 0.15 | 0.15 | 90 | 1012.5 |
| 20260506033044 | 8 | 184 | 1.6 | 1.6 | 0.00 | 0.15 | 0.15 | 90 | 1012.5 |
| 20260506032541 | 8 | 13 | 0.0 | 0.0 | 0.00 | 0.15 | 0.15 | 89 | 1012.5 |
| 20260506032038 | 8 | 91 | 0.0 | 3.2 | 0.00 | 0.15 | 0.15 | 91 | 1012.6 |
| 20260506031536 | 8 | 37 | 3.2 | 3.2 | 0.00 | 0.15 | 0.15 | 91 | 1012.7 |
| 20260506031032 | 8 | 58 | 3.2 | 3.2 | 0.00 | 0.15 | 0.15 | 90 | 1012.7 |
| 20260506030531 | 8 | 55 | 0.0 | 0.0 | 0.00 | 0.15 | 0.15 | 92 | 1013.0 |